[[{"header":{"parameterUnit":"m.s-1","parameterCategory":2,"la1":30.2991,"la2":30.254,"lo1":-89.0895,"lo2":-89.0444,"dy":0.0017,"dx":0.0017,"nx":28,"ny":28,"refTime":"2024-08-15T03:00:00:Z","depth":"0","parameterNumber":2,"parameterNumberName":"U-component_of_CURRENTS"},"data":[0,0,0,0,0,0,0,0,0,0,0,0,0,0,0,0,0,0,0,0,0,0,0,0,0,0,0,0,0,0,0,0,0,0,0,0,0,0,0,0,0,0,0,0,0,0,0,0,0,0,0,0,0,0,0,0,0,0,-0.3874,-0.3874,0,-0.3871,-0.3871,-0.387,-0.3887,-0.3888,-0.3889,-0.3889,-0.3855,-0.3853,-0.3851,0,0,0,0,0,0,0,0,0,0,0,0,0,-0.3801,-0.3802,-0.3874,-0.3874,-0.3874,-0.3871,-0.3871,-0.387,-0.3887,-0.3888,-0.3889,-0.389,-0.3855,-0.3853,-0.3851,0,0,0,0,0,0,0,0,0,0,0,0,0,-0.3815,-0.3803,-0.3873,-0.3885,-0.3886,-0.3871,-0.3871,-0.387,-0.3887,-0.3888,-0.3889,-0.389,-0.3856,-0.3854,-0.3851,-0.381,0,0,-0.3843,-0.3842,0,0,0,0,0,0,0,0,-0.3814,-0.3817,-0.3883,-0.3884,-0.3886,-0.3884,-0.3832,-0.385,-0.3886,-0.3882,-0.3889,-0.3891,-0.3863,-0.386,-0.3852,-0.3809,-0.3807,-0.3843,-0.3841,-0.384,-0.384,0,0,0,0,0,0,0,-0.3814,-0.3817,-0.3869,-0.3883,-0.3885,-0.3859,-0.3863,-0.3835,-0.3862,-0.3883,-0.3885,-0.389,-0.3863,-0.3854,-0.3851,-0.3807,-0.3843,-0.3841,-0.3839,-0.3838,-0.3711,-0.371,0,0,0,0,0,0,-0.3825,-0.3817,-0.3869,-0.3869,-0.3857,-0.386,-0.3864,-0.388,-0.3863,-0.3863,-0.3889,-0.3891,-0.3858,-0.3854,-0.385,-0.3743,-0.384,-0.3838,-0.3837,-0.3713,-0.3711,-0.3709,0,0,0,0,0,0,-0.3824,-0.383,-0.3869,-0.3845,-0.3849,-0.3861,-0.3878,-0.3879,-0.3879,-0.3869,-0.3868,-0.3889,-0.3859,-0.3854,-0.3824,-0.3744,-0.3837,-0.3835,-0.3715,-0.3713,-0.371,-0.3565,0,0,0,0,0,0,-0.3822,-0.383,-0.3839,-0.3846,-0.3851,-0.3846,-0.3877,-0.3879,-0.3882,-0.3884,-0.3868,-0.3866,-0.3859,-0.3828,-0.3822,-0.3742,-0.3833,-0.3718,-0.3714,-0.3711,-0.3573,-0.3558,-0.3546,0,0,0,0,0,-0.382,-0.3829,-0.384,-0.3846,-0.3866,-0.3845,-0.3843,-0.3853,-0.3881,-0.3861,-0.3862,-0.3867,-0.3801,-0.3824,-0.3817,-0.3735,-0.3719,-0.3715,-0.3711,-0.3579,-0.3561,-0.3546,0,0,0,0,0,0,-0.3798,-0.3832,-0.3844,-0.3863,-0.3849,-0.3849,-0.3841,-0.3853,-0.3839,-0.3847,-0.3849,-0.3844,-0.3777,-0.3794,-0.382,-0.3694,-0.3758,-0.3752,-0.366,-0.3643,-0.363,-0.3515,-0.383,0,0,0,0,0,-0.38,-0.3813,-0.3827,-0.3832,-0.3833,-0.3837,-0.3833,-0.3837,-0.3832,-0.3828,-0.3819,-0.3803,-0.3751,-0.3734,-0.3701,-0.3642,-0.3593,-0.3587,-0.3574,-0.3562,-0.3466,-0.3354,-0.3319,-0.3695,-0.3695,-0.3696,0,0,-0.3785,-0.381,-0.3813,-0.3827,-0.3824,-0.3789,-0.3836,-0.3824,-0.377,-0.3824,-0.3758,-0.3752,-0.3727,-0.3646,-0.3618,-0.3653,-0.344,-0.3557,-0.3546,-0.3454,-0.3345,-0.3308,-0.3274,-0.3693,-0.3693,-0.3694,0,0,-0.3742,-0.379,-0.3773,-0.3773,-0.3773,-0.376,-0.3758,-0.3754,-0.3729,-0.3694,-0.3682,-0.3605,-0.3613,-0.3502,-0.3468,-0.3359,-0.3369,-0.3405,-0.3235,-0.313,-0.3096,-0.3065,-0.2989,-0.2953,-0.3401,-0.3401,-0.3401,0,-0.3709,-0.3692,-0.3756,-0.374,-0.37,-0.3744,-0.3671,-0.366,-0.3639,-0.3577,-0.3666,-0.3528,-0.3504,-0.3305,-0.326,-0.3308,-0.3294,-0.3299,-0.3105,-0.3073,-0.3044,-0.2974,-0.2935,-0.3394,-0.3395,-0.3395,-0.3396,0,-0.364,-0.3627,-0.3615,-0.3593,-0.3574,-0.3516,-0.3512,-0.3477,-0.3485,-0.3455,-0.3316,-0.3284,-0.3186,-0.3175,-0.3181,-0.2944,-0.3018,-0.3098,-0.3132,-0.2996,-0.2933,-0.2895,-0.3383,-0.3386,-0.3388,-0.339,0,0,-0.3502,-0.3543,-0.3527,-0.3486,-0.3472,-0.3437,-0.3356,-0.3238,-0.3155,-0.3155,-0.2996,-0.2883,-0.2881,-0.2831,-0.2818,-0.2701,-0.2489,-0.2807,-0.2806,-0.2704,-0.229,-0.2228,-0.2183,-0.2575,-0.2567,-0.256,-0.2341,0,-0.3372,-0.3308,-0.3346,-0.3227,-0.3169,-0.3182,-0.3094,-0.3029,-0.2992,-0.2878,-0.2797,-0.2686,-0.2755,-0.2702,-0.2583,-0.2519,-0.2379,-0.2541,-0.2456,-0.245,-0.2389,-0.213,-0.2025,-0.1809,-0.2304,-0.2298,-0.2293,0,-0.324,-0.3207,-0.3082,-0.3018,-0.2989,-0.2934,-0.2773,-0.2708,-0.259,-0.2574,-0.2461,-0.2453,-0.2234,-0.2356,-0.2122,-0.2255,-0.2209,-0.2176,-0.2171,-0.2107,-0.2312,-0.202,-0.1722,-0.1726,-0.2235,-0.224,-0.2244,0,-0.3065,-0.3001,-0.2878,-0.2861,-0.2812,-0.2733,-0.2684,-0.2591,-0.2506,-0.2363,-0.2311,-0.2139,-0.2056,-0.196,-0.1928,-0.2023,-0.1708,-0.1855,-0.1731,-0.1733,-0.1601,-0.1601,-0.1246,-0.1605,-0.1606,-0.1606,-0.1607,0,-0.2882,-0.2798,-0.2802,-0.2738,-0.2586,-0.2606,-0.2433,-0.2393,-0.2282,-0.2157,-0.214,-0.2011,-0.1958,-0.1829,-0.1806,-0.1632,-0.1621,-0.157,-0.1608,-0.1558,-0.1557,-0.153,-0.1623,-0.1598,-0.16,-0.1602,-0.1603,0,-0.2723,-0.2731,-0.2607,-0.2533,-0.2513,-0.2414,-0.2339,-0.225,-0.2172,-0.2003,-0.1956,-0.1862,-0.1708,-0.1648,-0.1475,-0.1462,-0.1277,-0.1264,-0.1217,-0.1247,-0.1137,-0.1229,-0.0904,-0.0878,-0.1041,-0.1037,-0.1034,0,-0.2631,-0.2544,-0.2464,-0.243,-0.2399,-0.2294,-0.2251,-0.2192,-0.2112,-0.1916,-0.1829,-0.164,-0.1474,-0.1213,-0.1138,-0.0992,-0.1088,-0.0837,-0.0927,-0.0968,-0.1102,-0.1212,-0.1225,-0.0734,-0.0728,-0.0724,-0.0721,0,-0.2409,-0.2397,-0.2327,-0.227,-0.2227,-0.2126,-0.2053,-0.1977,-0.1892,-0.1756,-0.1528,-0.1353,-0.1123,-0.0872,-0.0724,-0.0691,-0.0815,-0.074,-0.0757,-0.0726,-0.0837,-0.0891,-0.1104,-0.0681,-0.0685,-0.0688,-0.069,-0.0692,-0.2239,-0.2187,-0.2135,-0.2078,-0.2042,-0.1925,-0.177,-0.1723,-0.1537,-0.1259,-0.1239,-0.0898,-0.0626,-0.0373,-0.0408,-0.0354,-0.0501,-0.0344,-0.0425,-0.0512,-0.0511,-0.0625,-0.0284,-0.0285,-0.0287,-0.0288,-0.0289,0,-0.199,-0.1992,-0.1957,-0.1856,-0.1745,-0.1768,-0.1612,-0.1427,-0.1179,-0.1,-0.0742,-0.0291,-0.0053,0.0021,0.0091,0.0007,-0.0118,-0.008,-0.0197,-0.0208,-0.0237,-0.0249,0.0087,0.0087,0.0087,0.0087,0.0087,0.0087,-0.186,-0.1778,-0.1812,-0.1579,-0.1502,-0.1227,-0.1082,-0.0886,-0.0695,-0.0317,-0.0039,0.0107,0.0282,0.0339,0.0231,0.0143,0.0019,-0.001,-0.0107,-0.0157,-0.019,-0.0221,-0.0245,0.0086,0.0086,-0.0022,-0.0023,-0.0024]},{"header":{"parameterUnit":"m.s-1","parameterCategory":2,"la1":30.2991,"la2":30.254,"lo1":-89.0895,"lo2":-89.0444,"dy":0.0017,"dx":0.0017,"nx":28,"ny":28,"refTime":"2024-08-15T03:00:00:Z","depth":"0","parameterNumber":3,"parameterNumberName":"V-component_of_CURRENTS"},"data":[0,0,0,0,0,0,0,0,0,0,0,0,0,0,0,0,0,0,0,0,0,0,0,0,0,0,0,0,0,0,0,0,0,0,0,0,0,0,0,0,0,0,0,0,0,0,0,0,0,0,0,0,0,0,0,0,0,0,-0.1026,-0.1025,0,-0.0921,-0.092,-0.0919,-0.0835,-0.0835,-0.0834,-0.0833,-0.0679,-0.0676,-0.0672,0,0,0,0,0,0,0,0,0,0,0,0,0,-0.1098,-0.1097,-0.1026,-0.1025,-0.1024,-0.0922,-0.092,-0.0918,-0.0836,-0.0835,-0.0834,-0.0833,-0.068,-0.0676,-0.0672,0,0,0,0,0,0,0,0,0,0,0,0,0,-0.1036,-0.1097,-0.1026,-0.0971,-0.0966,-0.0922,-0.092,-0.0918,-0.0836,-0.0835,-0.0834,-0.0833,-0.0682,-0.0676,-0.0671,-0.0659,0,0,-0.0655,-0.0653,0,0,0,0,0,0,0,0,-0.104,-0.1033,-0.0981,-0.0975,-0.0969,-0.0892,-0.0889,-0.0829,-0.0836,-0.0883,-0.0833,-0.0832,-0.0748,-0.0737,-0.0717,-0.0652,-0.0645,-0.0655,-0.0652,-0.0649,-0.0648,0,0,0,0,0,0,0,-0.1044,-0.1037,-0.0983,-0.098,-0.0972,-0.0933,-0.0923,-0.0877,-0.082,-0.0879,-0.0873,-0.0865,-0.0744,-0.0723,-0.0713,-0.0643,-0.0655,-0.065,-0.0647,-0.0645,-0.0472,-0.0471,0,0,0,0,0,0,-0.1065,-0.1041,-0.0986,-0.098,-0.1004,-0.0933,-0.0922,-0.0916,-0.0821,-0.0807,-0.0866,-0.0861,-0.0732,-0.0719,-0.0707,-0.0618,-0.0649,-0.0645,-0.0642,-0.0474,-0.0472,-0.047,0,0,0,0,0,0,-0.1067,-0.1061,-0.099,-0.1009,-0.0998,-0.0933,-0.0927,-0.0915,-0.0895,-0.0812,-0.0796,-0.0859,-0.0731,-0.0715,-0.0676,-0.0614,-0.0642,-0.0637,-0.0475,-0.0473,-0.0471,-0.0484,0,0,0,0,0,0,-0.1069,-0.1062,-0.1068,-0.1011,-0.0998,-0.0977,-0.0928,-0.0913,-0.0892,-0.0885,-0.0801,-0.0786,-0.0729,-0.0684,-0.067,-0.0608,-0.0633,-0.0477,-0.0474,-0.0472,-0.0486,-0.0483,-0.048,0,0,0,0,0,-0.1072,-0.1084,-0.1069,-0.1063,-0.1007,-0.0978,-0.0968,-0.0916,-0.0893,-0.0893,-0.0837,-0.0788,-0.0655,-0.0681,-0.0664,-0.0598,-0.0479,-0.0475,-0.0472,-0.0487,-0.0483,-0.048,0,0,0,0,0,0,-0.1119,-0.1075,-0.1058,-0.1056,-0.1027,-0.0965,-0.096,-0.0928,-0.0884,-0.0877,-0.0797,-0.0779,-0.071,-0.0668,-0.0698,-0.0539,-0.0547,-0.054,-0.0563,-0.0559,-0.0557,-0.0552,-0.0629,0,0,0,0,0,-0.1135,-0.1129,-0.1086,-0.1086,-0.1077,-0.1023,-0.1006,-0.0974,-0.0927,-0.0907,-0.0851,-0.0773,-0.0683,-0.064,-0.0578,-0.0514,-0.0497,-0.0452,-0.0449,-0.0448,-0.0432,-0.0448,-0.0447,-0.046,-0.046,-0.046,0,0,-0.115,-0.1128,-0.1123,-0.1095,-0.1067,-0.1024,-0.101,-0.0994,-0.0932,-0.0897,-0.0822,-0.0779,-0.0671,-0.0586,-0.0547,-0.0543,-0.042,-0.0443,-0.0442,-0.0427,-0.0445,-0.0444,-0.0443,-0.0458,-0.0458,-0.0458,0,0,-0.116,-0.1165,-0.115,-0.1131,-0.11,-0.1053,-0.1054,-0.1006,-0.0965,-0.0913,-0.0841,-0.0782,-0.0675,-0.0573,-0.0502,-0.0453,-0.0419,-0.0419,-0.0386,-0.0403,-0.0403,-0.0403,-0.0326,-0.0319,-0.0405,-0.0405,-0.0405,0,-0.1176,-0.1141,-0.1145,-0.1121,-0.108,-0.1063,-0.1011,-0.0971,-0.0913,-0.0879,-0.0892,-0.0736,-0.0651,-0.0503,-0.0458,-0.0441,-0.0436,-0.0409,-0.0403,-0.0403,-0.0403,-0.0324,-0.0317,-0.0405,-0.0405,-0.0405,-0.0405,0,-0.1157,-0.1128,-0.1126,-0.1064,-0.1034,-0.1004,-0.0942,-0.0917,-0.0879,-0.0838,-0.0758,-0.0687,-0.059,-0.0534,-0.0462,-0.0379,-0.0366,-0.0417,-0.0422,-0.0403,-0.032,-0.0311,-0.0405,-0.0405,-0.0405,-0.0405,0,0,-0.1184,-0.1112,-0.1111,-0.107,-0.0996,-0.0975,-0.0881,-0.0794,-0.0763,-0.0729,-0.0672,-0.0516,-0.0537,-0.0457,-0.0391,-0.0369,-0.0317,-0.038,-0.0381,-0.0318,-0.0302,-0.0281,-0.0269,-0.0404,-0.0404,-0.0404,-0.0226,0,-0.115,-0.108,-0.1037,-0.0957,-0.0912,-0.086,-0.0784,-0.0724,-0.0686,-0.0656,-0.0587,-0.0533,-0.0486,-0.0463,-0.0429,-0.0355,-0.0306,-0.0356,-0.0315,-0.031,-0.0311,-0.0264,-0.0225,-0.0066,-0.0218,-0.0216,-0.0215,0,-0.1141,-0.1083,-0.0987,-0.0899,-0.0878,-0.0829,-0.0737,-0.0673,-0.0616,-0.0601,-0.0564,-0.055,-0.0435,-0.0468,-0.0337,-0.0387,-0.0325,-0.0288,-0.0283,-0.0257,-0.0277,-0.0117,-0.0046,0.0026,-0.0203,-0.0204,-0.0205,0,-0.1161,-0.1061,-0.0971,-0.0942,-0.0836,-0.0791,-0.0737,-0.0673,-0.0635,-0.0595,-0.0599,-0.0519,-0.0478,-0.0434,-0.0314,-0.0345,-0.0215,-0.0259,-0.0165,-0.0159,-0.0107,-0.0099,0.0022,-0.0196,-0.0196,-0.0197,-0.0197,0,-0.114,-0.1089,-0.0993,-0.0957,-0.0898,-0.0823,-0.0776,-0.0731,-0.0678,-0.063,-0.0599,-0.0556,-0.049,-0.0407,-0.032,-0.019,-0.0217,-0.0127,-0.0125,-0.0102,-0.0096,-0.0019,-0.0002,-0.019,-0.0192,-0.0193,-0.0194,0,-0.1177,-0.1102,-0.1032,-0.0928,-0.091,-0.0885,-0.0814,-0.0778,-0.0739,-0.0676,-0.0665,-0.0575,-0.0456,-0.0365,-0.0247,-0.018,-0.0015,-0.0032,0.0046,0.0052,0.0174,0.019,0.0327,0.0409,0.0105,0.0107,0.0108,0,-0.1175,-0.1132,-0.1051,-0.1026,-0.0981,-0.0936,-0.089,-0.0824,-0.076,-0.0665,-0.0611,-0.052,-0.0391,-0.0203,-0.011,0.0044,0.0085,0.0168,0.0108,0.0219,0.0237,0.0233,0.0293,0.0219,0.0221,0.0223,0.0224,0,-0.1164,-0.1145,-0.1091,-0.1043,-0.1001,-0.0926,-0.0845,-0.0804,-0.0682,-0.0601,-0.043,-0.0342,-0.0216,-0.0045,0.0078,0.0157,0.0229,0.0204,0.0273,0.0314,0.0363,0.043,0.0129,0.0238,0.0237,0.0236,0.0235,0.0234,-0.1161,-0.1153,-0.1083,-0.1029,-0.0966,-0.0828,-0.0733,-0.062,-0.0466,-0.0238,-0.0214,0.0012,0.0055,0.0224,0.0277,0.0383,0.0355,0.0445,0.0462,0.0455,0.05,0.0273,0.0379,0.0379,0.0378,0.0378,0.0377,0,-0.1111,-0.1083,-0.1053,-0.0936,-0.0797,-0.0783,-0.0613,-0.0466,-0.0215,-0.0035,0.0176,0.0437,0.0498,0.0506,0.0559,0.0643,0.066,0.0692,0.0704,0.0758,0.0531,0.0497,0.0686,0.0686,0.0686,0.0685,0.0685,0.0685,-0.1072,-0.1016,-0.0991,-0.0747,-0.0651,-0.0403,-0.0265,-0.0085,0.0087,0.0465,0.0715,0.0861,0.0861,0.0738,0.0794,0.084,0.0957,0.0935,0.0996,0.0829,0.0807,0.0786,0.0759,0.0999,0.0999,0.1236,0.1238,0.1239]}],[{"header":{"parameterUnit":"m.s-1","parameterCategory":2,"la1":30.2991,"la2":30.254,"lo1":-89.0895,"lo2":-89.0444,"dy":0.0017,"dx":0.0017,"nx":28,"ny":28,"refTime":"2024-08-15T03:00:00:Z","depth":"2","parameterNumber":2,"parameterNumberName":"U-component_of_CURRENTS"},"data":[0,0,0,0,0,0,0,0,0,0,0,0,0,0,0,0,0,0,0,0,0,0,0,0,0,0,0,0,0,0,0,0,0,0,0,0,0,0,0,0,0,0,0,0,0,0,0,0,0,0,0,0,0,0,0,0,0,0,-0.1556,-0.1559,0,-0.173,-0.173,-0.1731,-0.1803,-0.1805,-0.1806,-0.1807,-0.1974,-0.1978,-0.1981,0,0,0,0,0,0,0,0,0,0,0,0,0,-0.1499,-0.1497,-0.1556,-0.156,-0.1563,-0.1729,-0.173,-0.1731,-0.1803,-0.1805,-0.1806,-0.1807,-0.1973,-0.1977,-0.1981,0,0,0,0,0,0,0,0,0,0,0,0,0,-0.1568,-0.1496,-0.1555,-0.1631,-0.164,-0.1729,-0.173,-0.1731,-0.1803,-0.1805,-0.1806,-0.1808,-0.1972,-0.1977,-0.1982,-0.1981,0,0,-0.1998,-0.2,0,0,0,0,0,0,0,0,-0.1563,-0.1567,-0.1616,-0.1626,-0.1637,-0.1761,-0.1773,-0.182,-0.1803,-0.1724,-0.1807,-0.1809,-0.1911,-0.1921,-0.1928,-0.1988,-0.1996,-0.1998,-0.2001,-0.2003,-0.2005,0,0,0,0,0,0,0,-0.1558,-0.1562,-0.1609,-0.162,-0.1633,-0.1731,-0.1738,-0.1782,-0.1794,-0.1731,-0.1741,-0.1785,-0.1915,-0.1923,-0.1933,-0.1998,-0.1998,-0.2002,-0.2006,-0.2008,-0.215,-0.2151,0,0,0,0,0,0,-0.1555,-0.1555,-0.1603,-0.1615,-0.1622,-0.173,-0.1738,-0.1706,-0.1794,-0.1814,-0.1784,-0.1788,-0.1913,-0.1927,-0.1939,-0.2001,-0.2003,-0.2008,-0.2011,-0.215,-0.2151,-0.2151,0,0,0,0,0,0,-0.1551,-0.1554,-0.1597,-0.1608,-0.1622,-0.1729,-0.1693,-0.1709,-0.1731,-0.1837,-0.1853,-0.1793,-0.1915,-0.1932,-0.2018,-0.2006,-0.201,-0.2015,-0.2149,-0.215,-0.2151,-0.2087,0,0,0,0,0,0,-0.1547,-0.1549,-0.1552,-0.1604,-0.1622,-0.167,-0.1694,-0.1712,-0.1763,-0.177,-0.185,-0.1867,-0.1918,-0.2011,-0.2023,-0.2013,-0.2019,-0.2148,-0.2149,-0.2151,-0.2089,-0.2086,-0.2084,0,0,0,0,0,-0.1543,-0.1547,-0.1548,-0.1559,-0.1608,-0.1672,-0.1688,-0.1763,-0.1762,-0.1782,-0.1847,-0.1865,-0.2027,-0.2016,-0.2031,-0.2021,-0.2147,-0.2149,-0.2151,-0.209,-0.2087,-0.2084,0,0,0,0,0,0,-0.1528,-0.1558,-0.156,-0.157,-0.1626,-0.1691,-0.1745,-0.1757,-0.1815,-0.1838,-0.1887,-0.191,-0.1973,-0.2014,-0.1999,-0.2068,-0.2084,-0.2088,-0.2032,-0.203,-0.2028,-0.1958,-0.2023,0,0,0,0,0,-0.1521,-0.152,-0.157,-0.1579,-0.161,-0.166,-0.1704,-0.1746,-0.1805,-0.1831,-0.1887,-0.1947,-0.1985,-0.2024,-0.208,-0.2124,-0.2105,-0.2126,-0.2123,-0.2121,-0.2076,-0.2052,-0.2042,-0.2157,-0.2157,-0.2157,0,0,-0.1519,-0.154,-0.1541,-0.1579,-0.1624,-0.1649,-0.1686,-0.176,-0.1762,-0.1842,-0.1882,-0.1946,-0.1997,-0.2052,-0.2081,-0.2089,-0.2083,-0.2123,-0.212,-0.2075,-0.2052,-0.204,-0.203,-0.2158,-0.2158,-0.2157,0,0,-0.1531,-0.1526,-0.1542,-0.1571,-0.1658,-0.1682,-0.1693,-0.1764,-0.1783,-0.1844,-0.1882,-0.1931,-0.2025,-0.2037,-0.2052,-0.2064,-0.207,-0.2103,-0.2036,-0.2015,-0.2003,-0.1993,-0.1961,-0.1949,-0.2104,-0.2104,-0.2104,0,-0.1545,-0.1532,-0.1567,-0.1589,-0.1615,-0.1676,-0.1691,-0.1709,-0.1799,-0.1811,-0.1864,-0.1947,-0.1994,-0.1988,-0.1998,-0.2048,-0.2048,-0.2039,-0.2006,-0.1995,-0.1986,-0.1956,-0.1942,-0.2101,-0.2101,-0.2102,-0.2102,0,-0.1568,-0.1554,-0.1573,-0.1584,-0.1612,-0.165,-0.1676,-0.1707,-0.1744,-0.1771,-0.1814,-0.1884,-0.1926,-0.1947,-0.1975,-0.1933,-0.1958,-0.2,-0.1998,-0.1969,-0.1941,-0.1928,-0.2097,-0.2098,-0.2099,-0.2099,0,0,-0.1573,-0.1589,-0.1585,-0.1577,-0.1611,-0.1633,-0.1627,-0.1647,-0.1648,-0.1721,-0.1716,-0.1757,-0.1806,-0.1821,-0.1864,-0.1838,-0.1773,-0.1889,-0.1889,-0.1829,-0.1724,-0.1621,-0.1598,-0.1825,-0.1823,-0.1821,-0.1733,0,-0.158,-0.1594,-0.1598,-0.1583,-0.158,-0.1602,-0.1587,-0.1608,-0.1647,-0.167,-0.169,-0.1727,-0.175,-0.1793,-0.1759,-0.1792,-0.1736,-0.1791,-0.1783,-0.1781,-0.167,-0.1577,-0.1486,-0.1389,-0.172,-0.1718,-0.1717,0,-0.156,-0.1582,-0.1576,-0.1555,-0.1562,-0.1563,-0.1558,-0.1564,-0.158,-0.1618,-0.1633,-0.1678,-0.1643,-0.1685,-0.1633,-0.1683,-0.1667,-0.1672,-0.1671,-0.1573,-0.1652,-0.1474,-0.1354,-0.1695,-0.1697,-0.1698,-0.17,0,-0.1505,-0.1524,-0.1517,-0.1514,-0.1534,-0.153,-0.1542,-0.1555,-0.1564,-0.1582,-0.1614,-0.1598,-0.1611,-0.1581,-0.1571,-0.1619,-0.1511,-0.1592,-0.146,-0.1456,-0.1365,-0.1354,-0.1495,-0.1495,-0.1495,-0.1495,-0.1495,0,-0.1449,-0.1436,-0.15,-0.1494,-0.1505,-0.1512,-0.1519,-0.1533,-0.1555,-0.1559,-0.1587,-0.1578,-0.1588,-0.1546,-0.1534,-0.1429,-0.1472,-0.1386,-0.14,-0.1344,-0.1332,-0.1598,-0.1611,-0.1492,-0.1493,-0.1493,-0.1494,0,-0.1355,-0.1385,-0.1395,-0.1453,-0.1468,-0.1476,-0.1511,-0.152,-0.1544,-0.1546,-0.155,-0.1553,-0.1483,-0.1455,-0.1404,-0.1369,-0.13,-0.1245,-0.1161,-0.1162,-0.1274,-0.1285,-0.1096,-0.1091,-0.1087,-0.1084,-0.1081,0,-0.131,-0.1308,-0.1381,-0.1393,-0.1422,-0.1447,-0.1463,-0.1505,-0.1511,-0.1517,-0.1507,-0.145,-0.1394,-0.1259,-0.1149,-0.1042,-0.1141,-0.0916,-0.0955,-0.1186,-0.1221,-0.1239,-0.1256,-0.0833,-0.0828,-0.0825,-0.0821,0,-0.1264,-0.1296,-0.1328,-0.1343,-0.1367,-0.1385,-0.1407,-0.1417,-0.1448,-0.1451,-0.1411,-0.1371,-0.1215,-0.1053,-0.0893,-0.0821,-0.093,-0.0831,-0.1075,-0.0941,-0.0928,-0.0966,-0.0993,-0.0787,-0.079,-0.0793,-0.0795,-0.0796,-0.1253,-0.1262,-0.1287,-0.1276,-0.1297,-0.1274,-0.1256,-0.1288,-0.1276,-0.1228,-0.127,-0.1164,-0.1106,-0.079,-0.0676,-0.0543,-0.0633,-0.0635,-0.0652,-0.0671,-0.0648,-0.0628,-0.0426,-0.0427,-0.0429,-0.043,-0.043,0,-0.122,-0.1207,-0.1205,-0.1174,-0.1122,-0.1165,-0.117,-0.1122,-0.1075,-0.1063,-0.1016,-0.085,-0.0718,-0.063,-0.0382,-0.0315,-0.034,-0.0288,-0.0377,-0.0409,-0.0438,-0.0409,-0.0121,-0.012,-0.0119,-0.0119,0,0,-0.1199,-0.1151,-0.1112,-0.0972,-0.0954,-0.0861,-0.0844,-0.0818,-0.0784,-0.0702,-0.0649,-0.0687,-0.0658,-0.0451,-0.0352,-0.0215,-0.031,-0.0158,-0.0404,-0.0545,-0.0574,-0.0625,-0.0612,0,0,0,0,0]},{"header":{"parameterUnit":"m.s-1","parameterCategory":2,"la1":30.2991,"la2":30.254,"lo1":-89.0895,"lo2":-89.0444,"dy":0.0017,"dx":0.0017,"nx":28,"ny":28,"refTime":"2024-08-15T03:00:00:Z","depth":"2","parameterNumber":3,"parameterNumberName":"V-component_of_CURRENTS"},"data":[0,0,0,0,0,0,0,0,0,0,0,0,0,0,0,0,0,0,0,0,0,0,0,0,0,0,0,0,0,0,0,0,0,0,0,0,0,0,0,0,0,0,0,0,0,0,0,0,0,0,0,0,0,0,0,0,0,0,-0.0618,-0.0618,0,-0.0519,-0.0517,-0.0515,-0.0388,-0.0387,-0.0386,-0.0385,-0.018,-0.0176,-0.0172,0,0,0,0,0,0,0,0,0,0,0,0,0,-0.062,-0.0621,-0.0618,-0.0618,-0.0617,-0.0519,-0.0517,-0.0515,-0.0388,-0.0387,-0.0386,-0.0385,-0.0182,-0.0177,-0.0171,0,0,0,0,0,0,0,0,0,0,0,0,0,-0.057,-0.0621,-0.0618,-0.0551,-0.0545,-0.052,-0.0517,-0.0514,-0.0388,-0.0387,-0.0385,-0.0384,-0.0184,-0.0177,-0.017,-0.0159,0,0,-0.015,-0.0147,0,0,0,0,0,0,0,0,-0.0573,-0.0568,-0.0561,-0.0556,-0.0549,-0.0474,-0.0444,-0.0394,-0.0389,-0.0436,-0.0385,-0.0383,-0.0278,-0.0263,-0.0233,-0.0149,-0.0141,-0.0149,-0.0145,-0.0142,-0.014,0,0,0,0,0,0,0,-0.0577,-0.0572,-0.0567,-0.0561,-0.0554,-0.0501,-0.0491,-0.0433,-0.0355,-0.0431,-0.0425,-0.0433,-0.0272,-0.024,-0.0227,-0.0138,-0.0149,-0.0143,-0.0139,-0.0137,0.0087,0.0089,0,0,0,0,0,0,-0.0618,-0.0576,-0.057,-0.0565,-0.057,-0.0503,-0.0492,-0.049,-0.0358,-0.0341,-0.0434,-0.0427,-0.0252,-0.0235,-0.0219,-0.0146,-0.0142,-0.0136,-0.0132,0.0085,0.0088,0.009,0,0,0,0,0,0,-0.0618,-0.0618,-0.0575,-0.0577,-0.057,-0.0507,-0.0505,-0.049,-0.0452,-0.0364,-0.0341,-0.0413,-0.025,-0.0229,-0.015,-0.0139,-0.0133,-0.0127,0.0083,0.0086,0.0089,-0.0033,0,0,0,0,0,0,-0.0618,-0.0618,-0.0609,-0.058,-0.0572,-0.0548,-0.0507,-0.0489,-0.0465,-0.0454,-0.0338,-0.0318,-0.0247,-0.016,-0.0143,-0.013,-0.0121,0.0081,0.0085,0.0088,-0.0032,-0.0035,-0.0038,0,0,0,0,0,-0.0618,-0.061,-0.0609,-0.0608,-0.0568,-0.0549,-0.0537,-0.0479,-0.0466,-0.044,-0.0364,-0.0321,-0.0124,-0.0154,-0.0134,-0.0119,0.0079,0.0083,0.0088,-0.003,-0.0034,-0.0038,0,0,0,0,0,0,-0.0594,-0.0597,-0.0594,-0.0584,-0.057,-0.0531,-0.0503,-0.049,-0.0412,-0.0392,-0.0313,-0.0286,-0.0214,-0.0142,-0.0177,-0.0035,-0.0009,-0.0001,-0.0105,-0.0108,-0.0111,-0.014,-0.0116,0,0,0,0,0,-0.0598,-0.0595,-0.0592,-0.0584,-0.0579,-0.0549,-0.0531,-0.0503,-0.0451,-0.0415,-0.0344,-0.0253,-0.0182,-0.0129,-0.0051,0.0016,0.0051,0.005,0.0047,0.0043,0.0039,0.0089,0.0088,0.0104,0.0104,0.0104,0,0,-0.0595,-0.0593,-0.0593,-0.0581,-0.056,-0.055,-0.0529,-0.0504,-0.0493,-0.0406,-0.0342,-0.0273,-0.0169,-0.009,-0.0048,-0.0028,0.0057,0.0048,0.0044,0.0042,0.0093,0.0091,0.0089,0.0107,0.0106,0.0106,0,0,-0.0593,-0.0581,-0.058,-0.0571,-0.0558,-0.054,-0.0545,-0.0509,-0.0478,-0.0429,-0.0363,-0.0295,-0.0173,-0.0104,-0.0054,-0.0026,0.0026,0.0017,-0.0012,0.0035,0.0032,0.0031,0.0052,0.0053,0.003,0.003,0.003,0,-0.0588,-0.0587,-0.0575,-0.0571,-0.0566,-0.0546,-0.0543,-0.0518,-0.046,-0.0435,-0.041,-0.0255,-0.0182,-0.0103,-0.0086,-0.0039,-0.0008,-0.0022,0.0023,0.0023,0.0023,0.0046,0.0048,0.0024,0.0025,0.0025,0.0026,0,-0.0595,-0.0584,-0.058,-0.0574,-0.0563,-0.0553,-0.0541,-0.0517,-0.049,-0.0458,-0.0384,-0.0293,-0.0195,-0.0163,-0.0118,-0.0067,-0.0047,-0.001,0.0011,0.0013,0.0038,0.0043,0.0017,0.0019,0.002,0.0021,0,0,-0.0614,-0.0591,-0.0591,-0.0583,-0.0563,-0.0557,-0.0545,-0.0521,-0.0504,-0.0444,-0.0411,-0.0311,-0.0266,-0.0206,-0.0144,-0.0103,-0.0094,-0.0059,-0.0054,-0.0078,-0.0007,0.0014,0.0022,-0.0053,-0.0052,-0.0051,-0.0,0,-0.0623,-0.0617,-0.0605,-0.0595,-0.0586,-0.0567,-0.0556,-0.0529,-0.0492,-0.0448,-0.0381,-0.0313,-0.0281,-0.0234,-0.0196,-0.0116,-0.0082,-0.0113,0.0031,0.0035,0.0021,0.0029,0.0037,0.0085,0.0005,0.0006,0.0006,0,-0.0635,-0.0629,-0.0624,-0.0596,-0.0592,-0.0586,-0.0561,-0.0547,-0.0493,-0.0459,-0.0398,-0.0339,-0.0279,-0.0248,-0.0145,-0.0165,-0.0097,-0.0043,-0.0039,0.0028,0.0066,0.0082,0.0098,0.0015,0.0014,0.0014,0.0013,0,-0.0653,-0.0636,-0.0632,-0.0627,-0.0601,-0.0597,-0.0583,-0.0542,-0.0525,-0.0466,-0.0436,-0.0356,-0.0307,-0.0228,-0.0129,-0.0131,-0.0017,0.0003,0.0083,0.0084,0.0146,0.0151,0.0081,0.0081,0.0081,0.0081,0.0081,0,-0.0658,-0.0653,-0.064,-0.064,-0.0636,-0.061,-0.0596,-0.0574,-0.0529,-0.0496,-0.0441,-0.0394,-0.0297,-0.0218,-0.0137,-0.0021,-0.0019,0.0072,0.0104,0.0105,0.0106,0.0099,0.0101,0.0083,0.0082,0.0082,0.0082,0,-0.0668,-0.0657,-0.0656,-0.0644,-0.0642,-0.0642,-0.0622,-0.0609,-0.0565,-0.0525,-0.0508,-0.042,-0.0319,-0.0223,-0.0084,-0.0022,0.0086,0.0136,0.0112,0.014,0.015,0.0146,0.0213,0.0214,0.0215,0.0216,0.0217,0,-0.0667,-0.0667,-0.0677,-0.0688,-0.0685,-0.068,-0.0679,-0.0636,-0.0617,-0.0532,-0.0512,-0.0406,-0.0318,-0.0135,0.0002,0.0138,0.0136,0.0219,0.0222,0.0142,0.0167,0.016,0.0154,0.0248,0.0249,0.025,0.025,0,-0.0677,-0.0687,-0.07,-0.0726,-0.0734,-0.074,-0.0726,-0.0714,-0.0652,-0.0613,-0.0523,-0.0442,-0.024,-0.0071,0.0102,0.0181,0.0188,0.0239,0.0187,0.0211,0.0179,0.0202,0.0194,0.0257,0.0257,0.0256,0.0256,0.0255,-0.0697,-0.072,-0.0747,-0.0767,-0.0783,-0.0796,-0.0793,-0.0763,-0.0732,-0.0633,-0.0554,-0.0402,-0.0222,0.0043,0.0173,0.0289,0.0277,0.0304,0.03,0.0295,0.0288,0.026,0.035,0.035,0.035,0.035,0.035,0,-0.0725,-0.0754,-0.0783,-0.0813,-0.0834,-0.0832,-0.0823,-0.0794,-0.0752,-0.0625,-0.053,-0.0328,-0.0125,0.0068,0.0277,0.038,0.0365,0.0383,0.0353,0.0346,0.034,0.0333,0.0409,0.0409,0.0409,0.041,0,0,-0.0744,-0.0785,-0.0801,-0.0847,-0.0867,-0.0875,-0.087,-0.0816,-0.0721,-0.059,-0.0453,-0.0317,-0.0078,0.0067,0.0207,0.0329,0.0301,0.0329,0.0273,0.0216,0.0209,0.029,0.0272,0,0,0,0,0]}],[{"header":{"parameterUnit":"m.s-1","parameterCategory":2,"la1":30.2991,"la2":30.254,"lo1":-89.0895,"lo2":-89.0444,"dy":0.0017,"dx":0.0017,"nx":28,"ny":28,"refTime":"2024-08-15T03:00:00:Z","depth":"4","parameterNumber":2,"parameterNumberName":"U-component_of_CURRENTS"},"data":[0,0,0,0,0,0,0,0,0,0,0,0,0,0,0,0,0,0,0,0,0,0,0,0,0,0,0,0,0,0,0,0,0,0,0,0,0,0,0,0,0,0,0,0,0,0,0,0,0,0,0,0,0,0,0,0,0,0,-0.0905,-0.0906,0,-0.0966,-0.0967,-0.0968,-0.1003,-0.1003,-0.1003,-0.1003,-0.1083,-0.1085,-0.1087,0,0,0,0,0,0,0,0,0,0,0,0,0,-0.0889,-0.0889,-0.0905,-0.0906,-0.0906,-0.0966,-0.0967,-0.0968,-0.1003,-0.1003,-0.1003,-0.1003,-0.1082,-0.1085,-0.1087,0,0,0,0,0,0,0,0,0,0,0,0,0,-0.092,-0.0889,-0.0905,-0.0929,-0.0932,-0.0965,-0.0967,-0.0968,-0.1003,-0.1003,-0.1003,-0.1003,-0.1081,-0.1085,-0.1088,-0.111,0,0,-0.1098,-0.1099,0,0,0,0,0,0,0,0,-0.0918,-0.0921,-0.0925,-0.0928,-0.0931,-0.0975,-0.099,-0.1016,-0.1003,-0.0979,-0.1003,-0.1003,-0.1047,-0.1053,-0.1068,-0.1114,-0.1117,-0.1098,-0.11,-0.1101,-0.1102,0,0,0,0,0,0,0,-0.0916,-0.0919,-0.0932,-0.0926,-0.0929,-0.0961,-0.0965,-0.0996,-0.1015,-0.0981,-0.0983,-0.0986,-0.1049,-0.1065,-0.107,-0.1119,-0.1098,-0.1101,-0.1103,-0.1104,-0.1187,-0.1187,0,0,0,0,0,0,-0.09,-0.0916,-0.093,-0.0933,-0.0921,-0.0961,-0.0965,-0.0963,-0.1014,-0.1021,-0.0986,-0.0987,-0.1059,-0.1066,-0.1073,-0.112,-0.1101,-0.1105,-0.1106,-0.1187,-0.1187,-0.1188,0,0,0,0,0,0,-0.0899,-0.09,-0.0927,-0.0925,-0.093,-0.096,-0.0958,-0.0964,-0.0996,-0.1017,-0.1025,-0.1013,-0.1059,-0.1068,-0.111,-0.1123,-0.1106,-0.1109,-0.1187,-0.1187,-0.1187,-0.1204,0,0,0,0,0,0,-0.0898,-0.0899,-0.0906,-0.0923,-0.0929,-0.0957,-0.0958,-0.0965,-0.0996,-0.0999,-0.1043,-0.1049,-0.106,-0.1105,-0.1114,-0.1127,-0.1112,-0.1186,-0.1187,-0.1187,-0.1203,-0.1204,-0.1206,0,0,0,0,0,-0.0897,-0.0917,-0.0906,-0.0909,-0.0933,-0.0958,-0.0965,-0.0988,-0.0997,-0.1016,-0.1042,-0.1049,-0.1113,-0.1109,-0.1118,-0.1133,-0.1186,-0.1187,-0.1187,-0.1202,-0.1204,-0.1206,0,0,0,0,0,0,-0.0919,-0.0922,-0.0911,-0.093,-0.0941,-0.0963,-0.0992,-0.0999,-0.1036,-0.1046,-0.1064,-0.1072,-0.1108,-0.112,-0.1114,-0.1155,-0.1147,-0.1149,-0.1155,-0.1157,-0.1158,-0.117,-0.1114,0,0,0,0,0,-0.0921,-0.0932,-0.0934,-0.0948,-0.0958,-0.0975,-0.0993,-0.1003,-0.1029,-0.1047,-0.107,-0.1094,-0.1115,-0.1136,-0.1155,-0.1192,-0.1192,-0.1202,-0.1203,-0.1205,-0.1219,-0.1241,-0.1246,-0.1189,-0.1189,-0.1189,0,0,-0.093,-0.0934,-0.094,-0.0953,-0.0968,-0.098,-0.0988,-0.102,-0.103,-0.105,-0.1087,-0.1105,-0.1125,-0.1155,-0.1172,-0.1171,-0.1213,-0.1205,-0.1207,-0.1221,-0.1242,-0.1248,-0.1253,-0.119,-0.119,-0.119,0,0,-0.0947,-0.0961,-0.0969,-0.0978,-0.0995,-0.1008,-0.1017,-0.1041,-0.106,-0.1087,-0.1099,-0.1135,-0.1162,-0.1186,-0.1198,-0.1225,-0.1218,-0.1218,-0.1246,-0.1267,-0.1272,-0.1277,-0.1251,-0.1254,-0.1224,-0.1224,-0.1224,0,-0.0957,-0.096,-0.0978,-0.0983,-0.0995,-0.1018,-0.1027,-0.1049,-0.108,-0.1104,-0.1098,-0.1159,-0.1179,-0.1225,-0.1228,-0.1232,-0.1222,-0.1238,-0.127,-0.1275,-0.1279,-0.1253,-0.1255,-0.1225,-0.1224,-0.1224,-0.1224,0,-0.0963,-0.0973,-0.0988,-0.0992,-0.101,-0.1034,-0.1049,-0.1082,-0.1102,-0.1116,-0.1166,-0.1194,-0.1234,-0.1237,-0.1243,-0.1287,-0.1259,-0.1266,-0.1267,-0.1286,-0.1256,-0.1258,-0.1226,-0.1225,-0.1225,-0.1225,0,0,-0.0968,-0.0986,-0.0992,-0.0998,-0.102,-0.104,-0.107,-0.1108,-0.1145,-0.1168,-0.1209,-0.1249,-0.1273,-0.1289,-0.1305,-0.1326,-0.1339,-0.1311,-0.1311,-0.1288,-0.1346,-0.121,-0.1199,-0.1349,-0.135,-0.1351,-0.13,0,-0.0968,-0.0979,-0.099,-0.1014,-0.1025,-0.1059,-0.1089,-0.1126,-0.116,-0.1207,-0.1246,-0.1285,-0.1287,-0.1313,-0.1337,-0.1346,-0.1351,-0.135,-0.133,-0.1329,-0.1208,-0.12,-0.1355,-0.1302,-0.1302,-0.1303,-0.1303,0,-0.0959,-0.0976,-0.099,-0.1032,-0.1044,-0.1066,-0.1138,-0.1164,-0.1229,-0.1255,-0.1305,-0.1326,-0.1374,-0.1365,-0.1392,-0.1388,-0.1371,-0.1366,-0.1364,-0.1239,-0.1197,-0.1287,-0.1307,-0.1307,-0.1306,-0.1306,-0.1306,0,-0.0944,-0.0977,-0.0995,-0.1005,-0.1052,-0.1086,-0.1125,-0.1187,-0.1221,-0.1291,-0.1316,-0.1371,-0.1393,-0.1405,-0.138,-0.1395,-0.1377,-0.1398,-0.1253,-0.1242,-0.1376,-0.1372,-0.141,-0.141,-0.141,-0.141,-0.141,0,-0.0924,-0.0945,-0.1,-0.1009,-0.1062,-0.1093,-0.1153,-0.1203,-0.1263,-0.1288,-0.1345,-0.1358,-0.1406,-0.1393,-0.1381,-0.1298,-0.1375,-0.1251,-0.1226,-0.1377,-0.1374,-0.1375,-0.1372,-0.1408,-0.1409,-0.1409,-0.1409,0,-0.0884,-0.0913,-0.095,-0.102,-0.1047,-0.1087,-0.116,-0.1197,-0.1261,-0.1292,-0.131,-0.1353,-0.1318,-0.1319,-0.1313,-0.1274,-0.1229,-0.1177,-0.1297,-0.128,-0.1082,-0.1081,-0.1033,-0.1028,-0.1024,-0.102,-0.1017,0,-0.0859,-0.0872,-0.0955,-0.098,-0.1014,-0.1076,-0.1112,-0.1188,-0.1206,-0.1262,-0.1257,-0.1254,-0.1256,-0.1131,-0.1152,-0.1089,-0.1078,-0.1054,-0.1114,-0.1067,-0.1047,-0.1052,-0.1056,-0.101,-0.1009,-0.1008,-0.1007,0,-0.0828,-0.0865,-0.0895,-0.0937,-0.0982,-0.1019,-0.1066,-0.1076,-0.1135,-0.1212,-0.1165,-0.1135,-0.1075,-0.1043,-0.0975,-0.0947,-0.1082,-0.101,-0.102,-0.1077,-0.1038,-0.1024,-0.1033,-0.0992,-0.0994,-0.0995,-0.0996,0,-0.0814,-0.0824,-0.0856,-0.0881,-0.0924,-0.0917,-0.0969,-0.097,-0.0996,-0.106,-0.1034,-0.1024,-0.1054,-0.0964,-0.0912,-0.0853,-0.0861,-0.0865,-0.0884,-0.0901,-0.0878,-0.0811,-0.0666,0,0,0,0,0,-0.0796,-0.0776,-0.0792,-0.0797,-0.0827,-0.0838,-0.0904,-0.0951,-0.1016,-0.0953,-0.0989,-0.0924,-0.0847,-0.0851,-0.0758,-0.0839,-0.0856,-0.073,-0.087,-0.0908,-0.0926,-0.091,0,0,0,0,0,0,-0.0776,-0.0787,-0.0759,-0.0699,-0.0681,-0.0694,-0.0728,-0.0786,-0.0757,-0.0835,-0.0794,-0.0857,-0.0789,-0.086,-0.0729,-0.0726,-0.0795,-0.0734,-0.0731,-0.0899,-0.0914,-0.0928,-0.0918,0,0,0,0,0]},{"header":{"parameterUnit":"m.s-1","parameterCategory":2,"la1":30.2991,"la2":30.254,"lo1":-89.0895,"lo2":-89.0444,"dy":0.0017,"dx":0.0017,"nx":28,"ny":28,"refTime":"2024-08-15T03:00:00:Z","depth":"4","parameterNumber":3,"parameterNumberName":"V-component_of_CURRENTS"},"data":[0,0,0,0,0,0,0,0,0,0,0,0,0,0,0,0,0,0,0,0,0,0,0,0,0,0,0,0,0,0,0,0,0,0,0,0,0,0,0,0,0,0,0,0,0,0,0,0,0,0,0,0,0,0,0,0,0,0,-0.0461,-0.0461,0,-0.0441,-0.0441,-0.0441,-0.0416,-0.0415,-0.0415,-0.0415,-0.0378,-0.0377,-0.0376,0,0,0,0,0,0,0,0,0,0,0,0,0,-0.0448,-0.0449,-0.0461,-0.0461,-0.0461,-0.0441,-0.0441,-0.044,-0.0416,-0.0415,-0.0415,-0.0415,-0.0378,-0.0377,-0.0376,0,0,0,0,0,0,0,0,0,0,0,0,0,-0.0442,-0.0449,-0.0461,-0.0448,-0.0447,-0.0442,-0.0441,-0.044,-0.0416,-0.0415,-0.0415,-0.0415,-0.0378,-0.0377,-0.0376,-0.0374,0,0,-0.0372,-0.0372,0,0,0,0,0,0,0,0,-0.0442,-0.0442,-0.045,-0.0449,-0.0447,-0.0433,-0.0423,-0.0418,-0.0416,-0.0425,-0.0415,-0.0415,-0.0396,-0.0394,-0.0387,-0.0372,-0.0371,-0.0372,-0.0371,-0.0371,-0.037,0,0,0,0,0,0,0,-0.0443,-0.0442,-0.0451,-0.045,-0.0448,-0.0434,-0.0432,-0.0422,-0.041,-0.0424,-0.0423,-0.0425,-0.0395,-0.0389,-0.0386,-0.037,-0.0372,-0.0371,-0.037,-0.037,-0.0364,-0.0364,0,0,0,0,0,0,-0.0452,-0.0443,-0.0451,-0.045,-0.0447,-0.0434,-0.0433,-0.0436,-0.0411,-0.0407,-0.0425,-0.0424,-0.0391,-0.0388,-0.0385,-0.0393,-0.0371,-0.037,-0.0369,-0.0363,-0.0364,-0.0364,0,0,0,0,0,0,-0.0452,-0.0453,-0.0452,-0.0448,-0.0447,-0.0435,-0.0439,-0.0436,-0.0433,-0.0412,-0.0408,-0.0426,-0.0391,-0.0387,-0.0388,-0.0391,-0.0369,-0.0368,-0.0362,-0.0363,-0.0364,-0.0401,0,0,0,0,0,0,-0.0451,-0.0453,-0.0456,-0.0449,-0.0448,-0.0458,-0.0439,-0.0435,-0.0436,-0.0434,-0.0412,-0.0408,-0.039,-0.039,-0.0386,-0.0388,-0.0367,-0.0362,-0.0363,-0.0364,-0.0399,-0.0403,-0.0406,0,0,0,0,0,-0.0451,-0.0456,-0.0457,-0.0458,-0.0454,-0.0459,-0.0457,-0.0445,-0.0436,-0.0441,-0.0429,-0.0409,-0.0394,-0.039,-0.0385,-0.0387,-0.0361,-0.0362,-0.0364,-0.0397,-0.0402,-0.0406,0,0,0,0,0,0,-0.0446,-0.0454,-0.0455,-0.046,-0.0465,-0.0456,-0.0455,-0.0451,-0.0444,-0.0442,-0.0419,-0.0415,-0.0418,-0.04,-0.0396,-0.0389,-0.0373,-0.0373,-0.0399,-0.0404,-0.0407,-0.0383,-0.0366,0,0,0,0,0,-0.045,-0.0459,-0.0464,-0.0469,-0.0472,-0.0466,-0.0466,-0.0463,-0.0458,-0.0454,-0.0442,-0.0427,-0.0419,-0.0411,-0.0404,-0.0399,-0.0354,-0.0397,-0.0401,-0.0404,-0.0382,-0.03,-0.0293,-0.0369,-0.0369,-0.0369,0,0,-0.0451,-0.0455,-0.0461,-0.047,-0.0469,-0.0479,-0.0465,-0.0471,-0.0476,-0.0451,-0.0454,-0.0445,-0.0424,-0.0423,-0.0421,-0.0407,-0.037,-0.0406,-0.0408,-0.0384,-0.03,-0.0292,-0.0285,-0.0369,-0.0369,-0.0369,0,0,-0.0458,-0.0461,-0.0472,-0.048,-0.0489,-0.0489,-0.0495,-0.0496,-0.0493,-0.0503,-0.0483,-0.0466,-0.0469,-0.0437,-0.0425,-0.0441,-0.0399,-0.0455,-0.0443,-0.0365,-0.0357,-0.0349,-0.0327,-0.0317,-0.0448,-0.0448,-0.0448,0,-0.0458,-0.0472,-0.0476,-0.0488,-0.0495,-0.0497,-0.051,-0.051,-0.0512,-0.05,-0.0512,-0.0478,-0.0465,-0.0429,-0.0441,-0.0444,-0.0415,-0.043,-0.0366,-0.0358,-0.0349,-0.0328,-0.0316,-0.045,-0.045,-0.045,-0.045,0,-0.0475,-0.0487,-0.0493,-0.0511,-0.0519,-0.0532,-0.0539,-0.0542,-0.0546,-0.0535,-0.0515,-0.0494,-0.046,-0.0466,-0.0462,-0.0402,-0.041,-0.0386,-0.035,-0.0343,-0.0323,-0.031,-0.0453,-0.0452,-0.0452,-0.0451,0,0,-0.0479,-0.0501,-0.0505,-0.0513,-0.0534,-0.054,-0.0551,-0.0549,-0.0534,-0.0536,-0.0505,-0.0491,-0.0462,-0.0444,-0.0427,-0.0366,-0.0305,-0.0357,-0.0352,-0.0327,-0.0172,-0.0189,-0.0177,-0.0269,-0.0266,-0.0264,-0.0198,0,-0.0492,-0.0516,-0.0526,-0.0548,-0.0559,-0.0563,-0.0566,-0.0562,-0.0554,-0.0526,-0.0485,-0.0458,-0.0459,-0.0441,-0.0379,-0.0328,-0.0266,-0.0328,-0.0188,-0.0185,-0.0191,-0.0159,-0.0254,-0.0188,-0.0185,-0.0183,-0.0181,0,-0.0507,-0.0521,-0.0545,-0.0554,-0.0558,-0.0572,-0.0563,-0.0566,-0.0526,-0.0514,-0.0466,-0.0438,-0.0371,-0.0363,-0.0241,-0.0286,-0.0223,-0.0179,-0.0174,-0.0156,-0.0175,-0.0185,-0.0157,-0.0159,-0.0161,-0.0162,-0.0164,0,-0.0506,-0.0531,-0.0549,-0.0558,-0.0572,-0.0575,-0.0579,-0.0557,-0.0546,-0.0494,-0.0473,-0.0393,-0.0354,-0.0257,-0.0193,-0.0205,-0.0058,-0.0056,-0.0009,-0.0012,-0.0001,-0.0009,0.0075,0.0075,0.0075,0.0075,0.0074,0,-0.0512,-0.0526,-0.0549,-0.0561,-0.0572,-0.0576,-0.0571,-0.0561,-0.0527,-0.0501,-0.0457,-0.0415,-0.0318,-0.0241,-0.0171,-0.0066,-0.0033,0.0011,0.0026,-0.0029,-0.004,0.0005,-0.0004,0.0077,0.0076,0.0076,0.0076,0,-0.0507,-0.0524,-0.0547,-0.0568,-0.0575,-0.0581,-0.0585,-0.0575,-0.0543,-0.0507,-0.049,-0.0416,-0.0321,-0.0238,-0.0089,-0.0043,0.0062,0.0101,0.0,0.0005,0.0044,0.0032,0.0165,0.0165,0.0166,0.0166,0.0166,0,-0.0506,-0.0518,-0.0556,-0.0575,-0.059,-0.06,-0.0608,-0.0587,-0.0574,-0.0508,-0.0487,-0.0393,-0.0339,-0.0164,-0.0068,0.0066,0.0092,0.0131,0.0128,0.0063,0.0064,0.0051,0.0039,0.0167,0.0167,0.0167,0.0167,0,-0.0507,-0.0526,-0.0549,-0.059,-0.0611,-0.0629,-0.0634,-0.0616,-0.0583,-0.0553,-0.0471,-0.0379,-0.0271,-0.0155,-0.0054,0.0047,0.0093,0.0135,0.0135,0.0134,0.0067,0.0065,0.0052,0.0168,0.0168,0.0168,0.0168,0,-0.0511,-0.0532,-0.0572,-0.0602,-0.0635,-0.0653,-0.0647,-0.0623,-0.0598,-0.0518,-0.0489,-0.0373,-0.0302,-0.0162,-0.0066,0.0022,0.0052,0.0076,0.008,0.0079,0.0033,-0.0066,0.0029,0,0,0,0,0,-0.0516,-0.0548,-0.0582,-0.0618,-0.0651,-0.0671,-0.0668,-0.0654,-0.0608,-0.0553,-0.0517,-0.0416,-0.0258,-0.0186,-0.0097,-0.0062,0.0057,0.0045,0.0084,0.0176,0.0174,0.0133,0,0,0,0,0,0,-0.0525,-0.0565,-0.0585,-0.063,-0.0655,-0.0688,-0.0688,-0.0657,-0.0615,-0.0557,-0.0473,-0.0407,-0.0257,-0.0317,-0.0102,-0.0072,-0.0037,0.0124,0.0126,0.0176,0.0175,0.0174,0.0131,0,0,0,0,0]}]]